Location: Llanfihangel-Ystrad
(52.1833°N, 4.1667°W)
Time: 15:24:01
(UTC+00:00)

ALOS - Pass Details

Date: 17 February 2020
Orbit: 684 x 685 km, 97.8° (Epoch: 08 April)

Event Time Altitude Azimuth Distance (km) Brightness Sun altitude
Rises 05:11:47 0° 18° (NNE) 3,065 6.0 -21.6°
Reaches altitude 10° 05:14:07 10° 24° (NNE) 2,144 5.2 -21.3°
Maximum altitude 05:18:40 48° 99° (E) 894 3.2 -20.6°
Drops below altitude 10° 05:23:10 10° 174° (S) 2,126 4.8 -19.9°
Sets 05:25:28 0° 180° (S) 3,037 5.6 -19.6°
